Home > Weather > Ojinaga > Past weeks

Flag for Mexico Past Weather in Ojinaga, Chihuahua, Mexico — Yesterday and Last 2 Weeks

Now
63 °F

Clear.


Feels Like: 63 °F
Forecast: 70 / 91 °F
Wind: 6 mph from Southwest

Location: Alpine-Casparis Municipal Airport

Current Time: Aug 28, 2016 at 6:23:42 AM

Latest Report: Aug 28, 2016 at 5:55 AM


Visibility: 10 mi

Pressure: 30.23 "Hg (27.55 "Hg at 788m altitude)

Humidity: 88%

Dew Point: 59 °F

Location of OjinagaLocation

Past Weather in Ojinaga — Graph

°F

Ojinaga Temperature Yesterday

Maximum temperature yesterday: 82 °F (at 4:15 PM)
Minimum temperature yesterday: 61 °F (at 5:55 AM)
Average temperature yesterday: 72 °F

High & Low Weather Summary for the Past Weeks

 TemperatureHumidityPressure
High83 °F (Aug 16, 3:55 PM)98% (Aug 24, 12:15 PM)30.35 "Hg (Aug 24, 12:15 PM)
Low55 °F (Aug 15, 6:35 AM)25% (Aug 16, 3:55 PM)30.04 "Hg (Aug 19, 5:15 PM)
Average70 °F73%30.21 "Hg
* Reported Aug 13 5:15 AM — Aug 28 5:15 AM, Ojinaga, Weather by CustomWeather, © 2016

Note: Actual official high and low records may vary slightly from our data, if they occured in-between our weather recording intervals... More about our weather records

Advertising

Ojinaga Weather History for the Previous 24 Hours

Scroll right to see more
 ConditionsComfort  
Time TempWeatherWind HumidityBarometerVisibility
5:15 AM
Sun, Aug 28
62 °FClear.3 mph90%30.22 "Hg10 mi
4:55 AM63 °FPassing clouds.7 mph89%30.21 "Hg10 mi
4:35 AM63 °FPassing clouds.8 mph88%30.21 "Hg10 mi
4:15 AM63 °FClear.5 mph86%30.20 "Hg10 mi
3:55 AM64 °FClear.5 mph84%30.20 "Hg10 mi
3:35 AM65 °FClear.8 mph83%30.20 "Hg10 mi
3:15 AM64 °FClear.5 mph83%30.20 "Hg10 mi
2:55 AM66 °FClear.5 mph79%30.20 "Hg10 mi
2:35 AM67 °FPassing clouds.6 mph76%30.21 "Hg10 mi
2:15 AM67 °FPassing clouds.7 mph75%30.20 "Hg10 mi
1:55 AM66 °FClear.7 mph79%30.20 "Hg10 mi
1:35 AM66 °FClear.7 mph79%30.20 "Hg10 mi
1:15 AM65 °FClear.9 mph84%30.20 "Hg10 mi
12:55 AM67 °FClear.3 mph78%30.20 "Hg10 mi
12:35 AM68 °FClear.No wind76%30.21 "Hg10 mi
12:15 AM68 °FClear.5 mph77%30.21 "Hg10 mi
11:55 PM
Sat, Aug 27
69 °FClear.8 mph76%30.21 "Hg10 mi
11:15 PM68 °FClear.5 mph80%30.22 "Hg10 mi
10:55 PM69 °FPassing clouds.5 mph78%30.22 "Hg10 mi
10:35 PM70 °FPassing clouds.5 mph77%30.23 "Hg10 mi
10:15 PM69 °FPassing clouds.5 mph79%30.23 "Hg10 mi
9:55 PM70 °FClear.No wind76%30.21 "Hg10 mi
9:15 PM69 °FClear.6 mph83%30.20 "Hg10 mi
8:55 PM69 °FClear.5 mph82%30.20 "Hg10 mi
8:35 PM69 °FThunderstorms. Clear.5 mph84%30.19 "Hg10 mi
8:15 PM69 °FSunny.5 mph86%30.17 "Hg10 mi
7:55 PM70 °FSunny.6 mph81%30.16 "Hg10 mi
7:35 PM70 °FSunny.5 mph80%30.17 "Hg10 mi
7:15 PM71 °FThundershowers. Scattered clouds.9 mph78%30.16 "Hg10 mi
6:55 PM74 °FThunderstorms. More clouds than sun.8 mph70%30.15 "Hg10 mi
6:35 PM77 °FThundershowers. Broken clouds.12 mph56%30.14 "Hg10 mi
6:15 PM79 °FSunny.8 mph51%30.13 "Hg10 mi
5:55 PM81 °FSunny.10 mph49%30.13 "Hg10 mi
5:35 PM82 °FSunny.7 mph46%30.13 "Hg10 mi
5:15 PM82 °FScattered clouds.No wind41%30.13 "Hg10 mi
4:55 PM82 °FSunny.7 mph43%30.12 "Hg10 mi
4:15 PM82 °FSunny.8 mph42%30.13 "Hg10 mi
3:55 PM82 °FSunny.6 mph42%30.13 "Hg10 mi
3:35 PM81 °FScattered clouds.7 mph44%30.14 "Hg10 mi
3:15 PM82 °FScattered clouds.9 mph44%30.14 "Hg10 mi
2:55 PM82 °FScattered clouds.10 mph46%30.15 "Hg10 mi
2:35 PM82 °FBroken clouds.8 mph47%30.16 "Hg10 mi
2:15 PM81 °FScattered clouds.12 mph46%30.17 "Hg10 mi
1:55 PM79 °FScattered clouds.10 mph52%30.17 "Hg10 mi
1:35 PM76 °FBroken clouds.14 mph54%30.19 "Hg10 mi
1:15 PM76 °FThunderstorms. Scattered clouds.13 mph56%30.20 "Hg10 mi
12:55 PM81 °FBroken clouds.3 mph46%30.20 "Hg10 mi
12:35 PM79 °FPartly sunny.No wind48%30.20 "Hg10 mi
12:15 PM78 °FThundershowers. Scattered clouds.9 mph51%30.21 "Hg10 mi
11:55 AM80 °FBroken clouds.12 mph50%30.21 "Hg10 mi
11:35 AM77 °FBroken clouds.7 mph54%30.22 "Hg10 mi
11:15 AM79 °FScattered clouds.7 mph52%30.22 "Hg10 mi
10:55 AM76 °FSunny.8 mph56%30.22 "Hg10 mi
10:35 AM76 °FSunny.5 mph57%30.23 "Hg10 mi
10:15 AM76 °FSunny.8 mph58%30.23 "Hg10 mi
9:55 AM76 °FSunny.8 mph58%30.23 "Hg10 mi
9:35 AM75 °FSunny.9 mph60%30.23 "Hg10 mi
9:15 AM74 °FSunny.12 mph61%30.23 "Hg10 mi
8:55 AM74 °FSunny.12 mph63%30.22 "Hg10 mi
8:35 AM72 °FSunny.5 mph65%30.23 "Hg10 mi
8:15 AM70 °FSunny.5 mph73%30.23 "Hg10 mi
7:55 AM68 °FSunny.3 mph74%30.23 "Hg10 mi
7:35 AM66 °FSunny.3 mph82%30.23 "Hg10 mi
7:15 AM64 °FClear.6 mph87%30.22 "Hg10 mi
6:55 AM62 °FClear.6 mph89%30.22 "Hg10 mi
6:35 AM61 °FClear.6 mph89%30.21 "Hg10 mi
6:15 AM62 °FClear.6 mph88%30.21 "Hg10 mi
Weather by CustomWeather, © 2016

See weather overviewHow to use our weather pages